Hinsdale, NY

2:51 AM EDT on July 30, 2016 (GMT -0400)
Cattaraugus County-Olean

Weather History for KOLE - December, 2012

Change the Weather History Date:

Sunday, December 9, 2012

  Actual Average (KBFD) Record (KBFD)
Temperature  
Mean Temperature 32 °F 28 °F  
Max Temperature 37 °F 35 °F 58 °F (1966)
Min Temperature 28 °F 21 °F -12 °F (2002)
Degree Days  
Heating Degree Days 32 33  
Month to date heating degree days 280  
Since 1 July heating degree days 2115  
Cooling Degree Days 0 0  
Month to date cooling degree days 0  
Year to date cooling degree days 193  
Moisture  
Dew Point 30 °F    
Average Humidity 91    
Maximum Humidity 100    
Minimum Humidity 70    
Precipitation  
Precipitation 0.00 in 0.12 in 0.99 in (1975)
Month to date precipitation 1.06  
Year to date precipitation 42.12  
Sea Level Pressure  
Sea Level Pressure 30.03 in    
Wind  
Wind Speed 7 mph (ESE)    
Max Wind Speed 17 mph    
Max Gust Speed 29 mph    
Visibility 9 miles    
Events Rain    
T = Trace of Precipitation, MM = Missing Value Source: NWS Daily Summary

Daily Weather History Graph

Daily Weather History Graph

Search for Another Location

Airport or City:

Trip Planner

Search our weather history database for the weather conditions in past years. The results will help you decide how hot, cold, wet, or windy it might be!

Date:

Astronomy

Dec. 09, 2012 Rise Set
Actual Time 7:30 AM EST 4:41 PM EST
Civil Twilight 6:59 AM EST 5:12 PM EST
Nautical Twilight 6:23 AM EST 5:48 PM EST
Astronomical Twilight 5:49 AM EST 6:22 PM EST
Moon 2:58 AM EST (12/9) 1:49 PM EST (12/9)
Length of Visible Light 10h 13m
Length of Day
9h 10m
Waning Crescent, 19% of the Moon is Illuminated
Dec 9
Waning Crescent
Dec 13
New
Dec 20
First Quarter
Dec 28
Full
Jan 4
Last Quarter

Hourly Weather History & Observations

Time (EST) Temp. Windchill Dew Point Humidity Pressure Visibility Wind Dir Wind Speed Gust Speed Precip Events Conditions
12:15 AM 32.0 °F 27.5 °F 30.2 °F 93% 30.08 in 10.0 mi NNW 4.6 mph - N/A   Overcast
12:35 AM 32.0 °F 26.4 °F 30.2 °F 93% 30.08 in 10.0 mi North 5.8 mph - N/A   Overcast
12:55 AM 32.0 °F - 30.2 °F 93% 30.08 in 10.0 mi Calm Calm - N/A   Overcast
1:15 AM 32.0 °F 27.5 °F 32.0 °F 100% 30.08 in 10.0 mi North 4.6 mph - N/A   Overcast
1:35 AM 32.0 °F 27.5 °F 30.2 °F 93% 30.10 in 10.0 mi North 4.6 mph - N/A   Overcast
1:55 AM 32.0 °F 28.7 °F 28.4 °F 87% 30.11 in 10.0 mi North 3.5 mph - N/A   Overcast
2:15 AM 32.0 °F 27.5 °F 30.2 °F 93% 30.11 in 10.0 mi North 4.6 mph - N/A   Overcast
2:35 AM 32.0 °F - 28.4 °F 87% 30.11 in 10.0 mi Calm Calm - N/A   Overcast
2:55 AM 32.0 °F 28.7 °F 30.2 °F 93% 30.12 in 10.0 mi NE 3.5 mph - N/A   Overcast
3:15 AM 30.2 °F 26.7 °F 28.4 °F 93% 30.13 in 10.0 mi NE 3.5 mph - N/A   Overcast
3:35 AM 30.2 °F 26.7 °F 28.4 °F 93% 30.13 in 10.0 mi NE 3.5 mph - N/A   Overcast
3:55 AM 30.2 °F - 28.4 °F 93% 30.14 in 10.0 mi Calm Calm - N/A   Overcast
4:15 AM 30.2 °F - 28.4 °F 93% 30.14 in 10.0 mi Calm Calm - N/A   Overcast
4:35 AM 30.2 °F 25.4 °F 28.4 °F 93% 30.15 in 10.0 mi ENE 4.6 mph - N/A   Overcast
4:55 AM 30.2 °F 24.3 °F 28.4 °F 93% 30.14 in 10.0 mi NE 5.8 mph - N/A   Overcast
5:15 AM 30.2 °F 25.4 °F 28.4 °F 93% 30.14 in 10.0 mi ENE 4.6 mph - N/A   Overcast
5:35 AM 30.2 °F 23.4 °F 28.4 °F 93% 30.14 in 10.0 mi NE 6.9 mph - N/A   Overcast
5:55 AM 30.2 °F 24.3 °F 26.6 °F 86% 30.15 in 10.0 mi East 5.8 mph - N/A   Mostly Cloudy
6:15 AM 28.4 °F 22.2 °F 26.6 °F 93% 30.15 in 10.0 mi East 5.8 mph - N/A   Scattered Clouds
6:55 AM 28.4 °F 20.4 °F 26.6 °F 93% 30.15 in 10.0 mi East 8.1 mph - N/A   Overcast
7:15 AM 28.4 °F 21.2 °F 26.6 °F 93% 30.16 in 10.0 mi East 6.9 mph - N/A   Overcast
7:35 AM 28.4 °F 20.4 °F 26.6 °F 93% 30.17 in 10.0 mi East 8.1 mph - N/A   Overcast
7:55 AM 28.4 °F 19.7 °F 26.6 °F 93% 30.16 in 10.0 mi ENE 9.2 mph - N/A   Overcast
8:15 AM 28.4 °F 20.4 °F 26.6 °F 93% 30.16 in 10.0 mi East 8.1 mph - N/A   Overcast
8:35 AM 28.4 °F 19.7 °F 26.6 °F 93% 30.16 in 10.0 mi East 9.2 mph - N/A   Overcast
8:55 AM 28.4 °F 18.5 °F 26.6 °F 93% 30.15 in 10.0 mi East 11.5 mph - N/A   Overcast
9:15 AM 30.2 °F 23.4 °F 28.4 °F 93% 30.16 in 10.0 mi East 6.9 mph - N/A   Overcast
9:35 AM 30.2 °F 21.9 °F 28.4 °F 93% 30.15 in 10.0 mi ESE 9.2 mph - N/A   Overcast
9:55 AM 30.2 °F 22.6 °F 26.6 °F 86% 30.15 in 10.0 mi East 8.1 mph - N/A   Overcast
10:15 AM 30.2 °F 21.9 °F 28.4 °F 93% 30.15 in 10.0 mi ESE 9.2 mph - N/A   Overcast
10:35 AM 30.2 °F 21.3 °F 28.4 °F 93% 30.14 in 10.0 mi ESE 10.4 mph - N/A   Overcast
10:55 AM 30.2 °F 22.6 °F 28.4 °F 93% 30.13 in 10.0 mi East 8.1 mph - N/A   Overcast
11:15 AM 32.0 °F 24.2 °F 28.4 °F 87% 30.12 in 10.0 mi ESE 9.2 mph - N/A   Overcast
11:35 AM 32.0 °F 24.8 °F 28.4 °F 87% 30.12 in 10.0 mi ESE 8.1 mph - N/A   Overcast
11:55 AM 32.0 °F 24.8 °F 28.4 °F 87% 30.10 in 10.0 mi SE 8.1 mph - N/A   Overcast
12:15 PM 32.0 °F 26.4 °F 28.4 °F 87% 30.09 in 10.0 mi ESE 5.8 mph - N/A   Overcast
12:35 PM 33.8 °F 27.0 °F 28.4 °F 81% 30.07 in 10.0 mi ESE 8.1 mph - N/A   Overcast
12:55 PM 33.8 °F 26.4 °F 28.4 °F 81% 30.06 in 10.0 mi ESE 9.2 mph - N/A   Overcast
1:15 PM 33.8 °F 27.7 °F 28.4 °F 81% 30.05 in 10.0 mi ESE 6.9 mph - N/A   Overcast
1:35 PM 33.8 °F 25.3 °F 28.4 °F 81% 30.04 in 10.0 mi SE 11.5 mph - N/A   Overcast
1:55 PM 35.6 °F 29.2 °F 26.6 °F 70% 30.03 in 10.0 mi ESE 8.1 mph - N/A   Overcast
2:15 PM 35.6 °F 28.0 °F 26.6 °F 70% 30.03 in 10.0 mi SE 10.4 mph - N/A   Overcast
2:35 PM 35.6 °F 29.9 °F 26.6 °F 70% 30.02 in 10.0 mi ESE 6.9 mph - N/A   Overcast
2:55 PM 35.6 °F 29.2 °F 26.6 °F 70% 30.01 in 10.0 mi ESE 8.1 mph - N/A   Overcast
3:35 PM 35.6 °F 28.0 °F 26.6 °F 70% 30.00 in 10.0 mi ESE 10.4 mph - N/A   Overcast
3:55 PM 35.6 °F 29.2 °F 28.4 °F 75% 30.00 in 10.0 mi ESE 8.1 mph - N/A   Overcast
4:15 PM 35.6 °F 28.6 °F 28.4 °F 75% 29.99 in 10.0 mi ESE 9.2 mph - N/A   Overcast
4:35 PM 35.6 °F 29.2 °F 30.2 °F 81% 29.99 in 10.0 mi ESE 8.1 mph - N/A   Overcast
4:55 PM 35.6 °F 28.6 °F 30.2 °F 81% 29.97 in 10.0 mi SE 9.2 mph - N/A   Overcast
5:15 PM 35.6 °F 28.6 °F 32.0 °F 87% 29.96 in 10.0 mi SE 9.2 mph - N/A   Overcast
5:35 PM 35.6 °F 28.6 °F 32.0 °F 87% 29.95 in 10.0 mi SE 9.2 mph - N/A   Overcast
5:55 PM 35.6 °F 28.6 °F 33.8 °F 93% 29.94 in 10.0 mi SE 9.2 mph - N/A   Light Drizzle
6:15 PM 35.6 °F 28.6 °F 33.8 °F 93% 29.94 in 10.0 mi SSE 9.2 mph 18.4 mph N/A Rain Light Rain
6:35 PM 35.6 °F 28.0 °F 33.8 °F 93% 29.92 in 4.0 mi SE 10.4 mph 17.3 mph N/A Rain Rain
6:55 PM 35.6 °F 28.6 °F 35.6 °F 100% 29.92 in 5.0 mi SSE 9.2 mph - N/A Rain Rain
7:15 PM 35.6 °F 26.2 °F 35.6 °F 100% 29.90 in 5.0 mi SSE 15.0 mph 19.6 mph N/A Rain Light Rain
7:35 PM 35.6 °F 29.2 °F 35.6 °F 100% 29.88 in 10.0 mi SSE 8.1 mph - N/A Rain Light Rain
7:55 PM 35.6 °F 27.1 °F 35.6 °F 100% 29.88 in 7.0 mi South 12.7 mph 19.6 mph N/A Rain Light Rain
8:15 PM 35.6 °F 28.0 °F 35.6 °F 100% 29.87 in 7.0 mi South 10.4 mph 19.6 mph N/A Rain Rain
8:35 PM 35.6 °F 25.5 °F 35.6 °F 100% 29.85 in 5.0 mi South 17.3 mph 24.2 mph N/A Rain Light Rain
8:55 PM 35.6 °F 25.5 °F 35.6 °F 100% 29.84 in 7.0 mi South 17.3 mph 28.8 mph N/A Rain Light Rain
9:15 PM 37.4 °F 29.8 °F 35.6 °F 93% 29.83 in 10.0 mi South 11.5 mph 20.7 mph N/A Rain Rain
9:35 PM 37.4 °F 32.1 °F 37.4 °F 100% 29.82 in 7.0 mi South 6.9 mph 18.4 mph N/A Rain Light Rain
9:55 PM 37.4 °F 30.3 °F 37.4 °F 100% 29.82 in 7.0 mi South 10.4 mph 16.1 mph N/A Rain Light Rain
10:15 PM 37.4 °F 29.3 °F 37.4 °F 100% 29.82 in 10.0 mi South 12.7 mph 24.2 mph N/A   Overcast
10:35 PM 37.4 °F 28.9 °F 37.4 °F 100% 29.80 in 7.0 mi South 13.8 mph 20.7 mph N/A   Overcast
10:55 PM 37.4 °F 29.3 °F 37.4 °F 100% 29.79 in 10.0 mi South 12.7 mph 21.9 mph N/A   Overcast
11:15 PM 37.4 °F 29.8 °F 37.4 °F 100% 29.78 in 10.0 mi South 11.5 mph 20.7 mph N/A   Overcast
11:35 PM 37.4 °F 29.3 °F 37.4 °F 100% 29.78 in 10.0 mi SSW 12.7 mph 19.6 mph N/A   Overcast
11:55 PM 37.4 °F 29.8 °F 37.4 °F 100% 29.77 in 10.0 mi South 11.5 mph - N/A   Overcast